HINODE (SOLAR-B) (29479 NORAD) Tracking and Keplerian Element Data

This shows tracking and keplerian element data for the satellite.

Feedback or suggestion? Click here.




ElementValue
Catalog29479
NameHINODE (SOLAR-B)
Epoch Orbit98171
Epoch Day34.63775221
Epoch Year2025
RAAN52.7837
Inclination98.0806
Eccentricity0.0019009
Argument of Perigee70.3855
Mean Anonmoly289.9399
Mean Motion14.67509148
Decay Rate1.617E-05
L11 29479U 06041A 25034.63775221 .00001617 00000+0 29311-3 0 9992
L22 29479 98.0806 52.7837 0019009 70.3855 289.9399 14.67509148981713



Live tracking and technical data element details for HINODE (SOLAR-B) (NORAD 29479). HINODE (SOLAR-B) can be tracked NOW for your location showing map with azimuth and elevation plus other details from your city location.







IsCatalogInMostPopularTable: catalog: 29479, numindb: 345
Update: records affected: 1



GetName: 29479 HINODE (SOLAR-B)

Hit Count: updated at: Thu, 22 May 2025 03:38:35 GMT